Location: *
(50.3090°N, 7.5696°E)
Time: 07:25:04
(UTC+00:00)

Daily predictions for brighter satellites

Satellite Brightness Start Highest point End
(mag) Time Altitude Azimuth Time Altitude Azimuth Time Altitude Azimuth
CENTAUR R/B 3.5 15:52:41 10° NW 16:00:36 77° SW 16:09:16 10° SSE
Cosmos 2322 4.1 15:58:17 10° S 16:03:45 49° ESE 16:09:14 10° NE
USA 215 3.4 15:57:51 10° ENE 16:04:26 77° SE 16:10:58 10° SW
Cosmos 2279 Rocket 4.2 15:59:20 10° N 16:05:28 54° ENE 16:11:34 10° SSE
Cosmos 1346 Rocket 2.9 16:02:38 10° N 16:06:32 57° ENE 16:10:27 10° SSE
Cosmos 1315 Rocket 3.4 16:02:58 10° SSE 16:06:40 38° E 16:10:27 10° NNE
FENGYUN 3A 4.0 16:01:32 10° S 16:06:57 74° WSW 16:12:24 10° NNW
Cosmos 371 Rocket 3.6 16:02:20 10° NNW 16:07:14 76° WSW 16:12:06 10° SSE
Okean-O 3.7 16:03:53 10° ESE 16:07:25 24° ENE 16:10:58 10° N
Cosmos 1634 Rocket 4.0 16:04:03 10° N 16:10:16 87° E 16:16:28 10° S
Cosmos 1606 3.3 16:07:08 10° SSW 16:10:51 58° WNW 16:14:38 10° N
Cosmos 2278 Rocket 2.7 16:05:46 10° NNW 16:11:06 39° NE 16:16:23 10° ESE
Cosmos 1666 4.5 16:14:15 10° NE 16:15:49 12° ENE 16:17:23 10° E
Envisat 3.8 16:12:13 10° ESE 16:16:33 29° ENE 16:20:53 10° N
NOSS 2-2 (D) 3.9 16:13:34 10° WSW 16:17:13 52° NW 16:21:33 10° NE
Cosmos 1400 Rocket 3.3 16:13:21 10° SSW 16:17:26 66° WNW 16:21:29 10° N
Cosmos 1707 Rocket 4.0 16:14:19 10° SSE 16:18:32 43° E 16:22:47 10° NNE
Cosmos 1331 Rocket 4.5 16:13:53 10° NNW 16:19:06 68° WSW 16:24:19 10° S
Cosmos 2360 Rocket 2.3 16:14:19 10° SSW 16:19:59 82° WNW 16:25:43 10° NNE
NOAA 6 4.4 16:15:13 10° S 16:20:20 69° WSW 16:25:28 10° NNW
Cosmos 1689 Rocket 2.3 16:18:14 10° N 16:21:17 76° WNW 16:24:19 10° SSW
STARLINK-67 2.9 16:21:29 10° SW 16:24:11 54° SSE 16:26:28 13° ENE
Cosmos 2369 Rocket 4.0 16:22:51 10° N 16:25:01 12° NNE 16:27:11 10° NE
Cosmos 1980 Rocket 4.2 16:23:01 10° W 16:27:06 20° NW 16:31:11 10° N
Cosmos 1992 Rocket 4.5 16:23:20 10° NNW 16:28:14 38° ENE 16:33:06 10° SE
Meteor 1-11 Rocket 4.1 16:24:19 10° N 16:30:07 49° ENE 16:35:53 10° SE
Cosmos 2333 Rocket 2.6 16:25:16 10° S 16:30:45 49° ESE 16:36:17 10° NE
COSMO-SKYMED 1 4.1 16:34:56 14° ENE 16:36:51 18° E 16:39:48 10° SE
Shenzhou-11 Module 4.3 16:36:01 10° SSW 16:37:37 14° SSE 16:39:12 10° SE
RESURS DK-1 3.1 16:34:40 10° S 16:38:24 34° ESE 16:41:15 15° NE
Meteor 1-27 Rocket 4.4 16:33:47 10° SSE 16:38:56 36° E 16:44:12 10° NNE
USA 267 4.1 16:34:05 10° SE 16:40:27 53° SW 16:46:50 10° WNW
ATLAS 3B R/B 3.5 16:34:04 10° NW 16:40:35 56° WSW 16:47:16 10° SSE
Cosmos 2237 Rocket 3.3 16:36:15 10° SSE 16:40:43 24° ESE 16:43:57 15° ENE
ISS -3.7 16:37:28 10° WNW 16:40:49 78° SSW 16:44:04 11° ESE
STARLINK-46 4.2 16:39:54 10° SSW 16:42:03 21° SE 16:43:16 16° ESE
NOSS 3-4 (A) 3.5 16:36:20 10° SW 16:42:22 84° SE 16:48:18 13° NE
NOSS 3-4 (C) 3.5 16:36:26 10° SW 16:42:29 84° SE 16:48:24 13° NE
Cosmos 2322 Rocket 3.5 16:39:38 10° WSW 16:44:45 35° NW 16:49:56 10° NNE
CZ-4B R/B 3.6 16:42:09 10° N 16:45:07 26° WNW 16:48:04 10° SW
Cosmos 1812 3.3 16:42:43 10° SSE 16:46:15 35° E 16:49:28 12° NNE
YAOGAN 1 3.6 16:45:41 10° ESE 16:49:07 23° ENE 16:52:34 10° N
COBE Rocket 3.9 16:44:40 10° NNE 16:49:15 55° E 16:53:49 10° S
Exosat Rocket 4.1 16:44:38 10° S 16:49:34 38° ESE 16:53:10 16° NE
Cosmos 1900 4.5 16:45:38 10° NNW 16:50:25 50° NE 16:55:10 10° ESE
SL-16 R/B 3.7 16:45:59 10° WSW 16:50:55 30° NW 16:55:53 10° NNE
Feng Yun 1-1 Rocket 4.3 16:49:01 10° SSE 16:54:25 83° WSW 16:59:51 10° NNW
NOAA 12 4.0 16:51:52 10° SSE 16:57:08 70° ENE 17:02:25 10° N
Cosmos 2219 Rocket 2.1 16:52:01 10° SSW 16:57:36 73° ESE 17:02:43 13° NNE
BREEZE-M R/B 3.0 16:53:10 10° WSW 16:59:18 79° S 17:01:16 25° E
Ariane Rocket 4.4 17:00:26 18° NE 17:00:26 18° NE 17:03:22 10° NNE
CORIOLIS 4.2 16:54:46 10° SSE 17:00:14 88° WSW 17:05:44 10° NNW
Cosmos 1733 Rocket 3.0 16:57:13 10° N 17:01:37 87° ENE 17:06:00 10° S
Cosmos 1536 2.9 16:59:50 10° N 17:03:48 52° ENE 17:07:43 10° SSE
PSLV R/B 4.3 17:00:32 10° N 17:04:43 68° WNW 17:08:49 10° SSW
Cosmos 1500 3.1 17:03:20 10° N 17:07:09 87° E 17:10:54 10° S
SMAP 3.5 17:02:39 10° S 17:07:16 64° WSW 17:11:55 10° NNW
Cosmos 1980 4.1 17:05:28 10° S 17:10:44 42° ESE 17:13:45 23° NE
CZ-4 R/B 1.6 17:07:26 10° SE 17:11:07 40° ENE 17:14:45 10° N
Cosmos 2297 4.2 17:06:03 10° NNW 17:11:23 38° NE 17:14:46 20° ESE
H-2A R/B 3.6 17:11:59 10° S 17:15:35 50° W 17:19:13 10° NNW
Cosmos 1943 Rocket 3.4 17:11:36 10° NNW 17:15:51 21° NE 17:16:12 21° NE
Cosmos 1441 Rocket 4.5 17:14:24 10° N 17:16:27 24° NNE 17:16:27 24° NNE
ATLAS 2AS CENTAUR R/B 3.5 17:12:33 10° WSW 17:20:29 59° NW 17:26:45 17° NE
Lacrosse 5 rocket 1.7 17:16:34 10° SSW 17:20:39 46° SE 17:21:46 36° E
CSL-04 Rocket 3.7 17:17:40 10° SE 17:22:44 50° ENE 17:27:51 10° N
COSMOS 2428 2.8 17:17:32 10° SSW 17:23:13 78° WNW 17:27:48 16° NNE
NOSS 7 (D) 3.9 17:20:28 10° NW 17:23:23 77° NE 17:23:57 56° ESE
YAOGAN 6 2.4 17:20:03 10° SSE 17:23:33 66° ENE 17:27:06 10° N
SKYMED 2 3.8 17:23:37 30° NE 17:25:22 48° E 17:29:34 10° S
Cosmos 1782 Rocket 3.9 17:24:51 10° N 17:35:19 - SSE 17:28:57 40° ENE
Cosmos 292 Rocket 3.7 17:24:46 10° NNW 17:29:38 65° ENE 17:34:27 10° SE
SL-4 R/B 1.9 17:26:19 10° WSW 17:30:06 73° SSE 17:31:03 49° E
SeaSat 1 3.4 17:31:15 29° NE 17:31:15 29° NE 17:35:16 10° NNW
Cosmos 2251 Rocket 3.4 17:27:39 10° SSW 17:32:57 78° ESE 17:36:13 24° NNE
Cosmos 1092 Rocket 4.0 17:27:09 10° S 17:33:21 62° E 17:39:32 10° NNE
NOSS 0 Rocket 3.9 17:27:35 10° SSW 17:33:46 70° ESE 17:37:30 25° NE
CSL-04 Debris 4.1 17:29:37 10° SSE 17:35:00 64° ENE 17:40:24 10° N
ATLAS 5 CENTAUR R/B 2.7 17:34:53 10° SSW 17:35:55 22° SSW 17:35:55 22° SSW
Cosmos 2242 Rocket 3.5 17:32:39 10° S 17:37:13 77° E 17:40:14 21° NNE
Cosmos 921 Rocket 3.6 17:33:15 10° N 17:36:26 37° NNE 17:36:26 37° NNE
CZ-4 R/B 4.3 17:33:36 10° SSE 17:37:46 85° ENE 17:41:58 10° NNW
FengYun 1-2 T 4.2 17:33:44 10° SSE 17:39:13 86° WSW 17:44:46 10° NNW
Cosmos 1862 Rocket 3.9 17:35:51 10° SSW 17:40:10 66° WNW 17:44:16 12° N
Cosmos 1703 Rocket 3.7 17:38:20 10° S 17:42:40 52° E 17:42:45 52° E
Okean-O 3.6 17:39:22 10° S 17:43:39 48° W 17:47:58 10° NNW
Genesis I 3.6 17:41:45 10° NW 17:45:01 48° N 17:45:01 48° N
USA 215 3.5 17:44:09 30° NE 17:47:21 58° NNW 17:53:44 10° W
Cosmos 1666 2.8 17:48:10 10° NNW 17:51:55 70° W 17:55:37 10° S
NOAA 11 4.1 17:49:01 10° SSE 17:54:25 69° ENE 17:59:53 10° N
Cosmos 2344 4.5 17:46:27 10° NW 17:54:50 48° NNE 17:59:09 34° ENE
Cosmos 2278 Rocket 3.3 17:49:55 10° NW 17:55:16 44° WSW 18:00:36 10° S
Envisat 4.0 17:50:29 10° S 17:55:23 48° W 18:00:19 10° NNW
Cosmos 1867 3.8 17:55:04 10° NW 18:00:20 49° NE 18:00:20 49° NE
S3M 4.3 17:54:56 10° N 18:00:12 44° NE 18:00:12 44° NE
IRS-1A Rocket 4.5 18:00:58 51° ENE 18:01:04 51° ENE 18:06:46 10° N
BREEZE-M DEB (TANK) 3.2 18:00:55 10° W 18:04:17 37° SSW 18:04:17 37° SSW
Cosmos 2360 Rocket 4.2 18:00:34 10° W 18:04:53 22° NW 18:08:44 12° N
Cosmos 2369 Rocket 3.3 18:05:44 10° NNW 18:09:07 29° NNE 18:09:07 29° NNE
SL-16 R/B 3.0 18:06:09 10° S 18:09:56 36° SSE 18:09:56 36° SSE
COSMO-SKYMED 1 3.0 18:12:09 41° NNW 18:13:24 59° WNW 18:17:40 10° SSW
Cosmos 2333 Rocket 3.5 18:09:53 10° WSW 18:15:12 37° NW 18:18:31 21° N
Cosmos 1553 Rocket 3.9 18:09:35 10° N 18:15:57 73° E 18:22:20 10° SSE
RESURS DK-1 3.8 18:12:42 10° WSW 18:16:27 32° NW 18:17:10 30° NNW
ISS -1.4 18:14:35 10° W 18:17:00 21° SW 18:17:00 21° SW
Cosmos 1428 Rocket 4.3 18:14:07 10° S 18:20:17 84° E 18:23:49 28° NNE
NOSS 3-1 (C) 4.2 18:15:40 10° NW 18:22:26 46° NNE 18:22:54 46° NE
Cosmos 2237 Rocket 2.4 18:18:37 10° SW 18:24:18 67° WNW 18:25:48 48° N
YAOGAN 1 3.5 18:20:49 10° S 18:24:58 46° W 18:29:10 10° NNW
BREEZE-M DEB (TANK) 4.5 18:25:17 10° W 18:27:30 17° SW 18:27:30 17° SW
USA 229 DEB 4.1 18:22:39 10° NW 18:29:29 48° NNE 18:29:29 48° NNE
USA 229 4.1 18:22:45 10° NW 18:29:34 48° NNE 18:29:34 48° NNE
NOSS 3-1 (A) 4.4 18:28:02 10° NW 18:34:26 42° NNE 18:34:26 42° NNE
Cosmos 2026 Rocket 4.1 18:30:40 10° SSW 18:36:42 68° WNW 18:40:53 21° N
Ariane Rocket 4.2 18:40:38 33° NNW 18:40:38 33° NNW 18:43:25 10° NNW
Cosmos 489 Rocket 4.4 18:32:33 10° NNW 18:38:49 84° NNE 18:38:49 84° NNE
Cosmos 2219 Rocket 3.9 18:37:24 10° W 18:42:08 27° NW 18:44:27 21° N
CZ-4 R/B 3.8 18:43:20 10° SW 18:46:19 21° W 18:49:17 10° NW
Lacrosse 5 rocket 3.7 18:55:49 10° W 18:57:26 21° W 18:57:26 21° W
Cosmos 1943 Rocket 3.5 18:54:51 10° NNW 18:57:45 31° NNW 18:57:45 31° NNW
SeaSat 1 4.3 19:11:03 26° NW 19:11:03 26° NW 19:13:13 10° NW
ATLAS 2AS CENTAUR R/B 4.1 19:06:00 10° WNW 19:13:05 33° NNW 19:14:11 32° N
USA 215 4.1 19:31:30 42° NW 19:31:30 42° NW 19:36:08 10° WNW
Cosmos 2344 4.4 20:00:55 10° NW 20:09:10 71° WNW 20:09:10 71° WNW
